Eelde, Netherlands

9:02 AM CEST on September 29, 2016 (GMT +0200)
Eelde

Weather History for EHGG - May, 2012

Change the Weather History Date:

Tuesday, May 29, 2012

  Actual Average Record
Temperature  
Mean Temperature 54 °F -  
Max Temperature 63 °F 64 °F 80 °F (1999)
Min Temperature 44 °F 46 °F 41 °F (2015)
Degree Days  
Heating Degree Days 10    
Growing Degree Days 4 (Base 50)    
Moisture  
Dew Point 49 °F    
Average Humidity 78    
Maximum Humidity 100    
Minimum Humidity 50    
Precipitation  
Precipitation 0.00 in - - ()
Sea Level Pressure  
Sea Level Pressure 29.99 in    
Wind  
Wind Speed 8 mph ()    
Max Wind Speed 12 mph    
Max Gust Speed -    
Visibility 5.9 miles    
Events      
Averages and records for this station are not official NWS values.
T = Trace of Precipitation, MM = Missing Value Source: Averaged Metar Reports

Daily Weather History Graph

Daily Weather History Graph

Search for Another Location

Airport or City:

Trip Planner

Search our weather history database for the weather conditions in past years. The results will help you decide how hot, cold, wet, or windy it might be!

Date:

Astronomy

May. 29, 2012 Rise Set
Actual Time 5:16 AM CEST 9:46 PM CEST
Civil Twilight 4:27 AM CEST 10:35 PM CEST
Nautical Twilight 3:13 AM CEST 11:50 PM CEST
Astronomical Twilight 2:03 AM CEST 12:58 AM CEST
Moon 2:06 PM CEST 1:58 AM CEST
Length of Visible Light 18h 07m
Length of Day
16h 30m
First Quarter, 56% of the Moon is Illuminated
May 29
First Quarter
Jun 4
Full
Jun 11
Last Quarter
Jun 19
New
Jun 27
First Quarter

Hourly Weather History & Observations

Time (CEST) Temp. Windchill Dew Point Humidity Pressure Visibility Wind Dir Wind Speed Gust Speed Precip Events Conditions
12:25 AM 55.4 °F - 55.4 °F 100% 29.95 in 1.6 mi West 6.9 mph - N/A   Overcast
12:55 AM 57.2 °F - 55.4 °F 94% 29.95 in - WNW 5.8 mph - N/A   Overcast
1:25 AM 55.4 °F - 55.4 °F 100% 29.95 in - West 8.1 mph - N/A   Overcast
1:55 AM 55.4 °F - 55.4 °F 100% 29.95 in 3.1 mi WNW 5.8 mph - N/A   Overcast
2:00 AM 56 °F - 55 °F 95% 29.97 in 3 mi WNW 6.7 mph - -   Mist
2:25 AM 55.4 °F - 55.4 °F 100% 29.95 in 3.1 mi West 8.1 mph - N/A   Overcast
2:55 AM 55.4 °F - 53.6 °F 94% 29.95 in 1.6 mi WNW 9.2 mph - N/A   Overcast
3:25 AM 55.4 °F - 53.6 °F 94% 29.95 in 1.4 mi WNW 8.1 mph - N/A   Overcast
3:55 AM 53.6 °F - 53.6 °F 100% 29.95 in - NW 8.1 mph - N/A   Overcast
4:25 AM 53.6 °F - 53.6 °F 100% 29.95 in 1.7 mi WNW 8.1 mph - N/A   Overcast
4:55 AM 53.6 °F - 53.6 °F 100% 29.95 in 1.9 mi NW 8.1 mph - N/A   Overcast
5:00 AM 54 °F - 53 °F 97% 29.96 in 2 mi NW 8.9 mph - -   Mist
5:25 AM 53.6 °F - 53.6 °F 100% 29.95 in 2.2 mi NW 9.2 mph - N/A   Overcast
5:55 AM 53.6 °F - 53.6 °F 100% 29.95 in 1.8 mi West 5.8 mph - N/A   Overcast
6:25 AM 55.4 °F - 53.6 °F 94% 29.95 in 3.1 mi West 5.8 mph - N/A   Mostly Cloudy
6:55 AM 55.4 °F - 53.6 °F 94% 29.95 in 3.7 mi West 6.9 mph - N/A   Mostly Cloudy
7:25 AM 55.4 °F - 53.6 °F 94% 29.95 in 4.3 mi West 6.9 mph - N/A   Overcast
7:55 AM 55.4 °F - 53.6 °F 94% 29.95 in 5.6 mi NW 9.2 mph - N/A   Overcast
8:00 AM 56 °F - 53 °F 84% 29.97 in 7 mi NNW 8.9 mph - -   Overcast
8:25 AM 55.4 °F - 50.0 °F 82% 29.98 in 6.2 mi NNW 11.5 mph - N/A   Overcast
8:55 AM 55.4 °F - 50.0 °F 82% 29.98 in 6.2 mi NNW 11.5 mph - N/A   Overcast
9:25 AM 55.4 °F - 48.2 °F 77% 29.98 in 6.2 mi NNW 9.2 mph - N/A   Overcast
9:55 AM 55.4 °F - 48.2 °F 77% 29.98 in 6.2 mi NNW 11.5 mph - N/A   Overcast
10:25 AM 57.2 °F - 48.2 °F 72% 29.98 in 6.2 mi NNW 9.2 mph - N/A   Overcast
10:55 AM 59.0 °F - 48.2 °F 67% 29.98 in 6.2 mi North 10.4 mph - N/A   Mostly Cloudy
11:00 AM 59 °F - 47 °F 55% 30.00 in 11 mi North 8.9 mph - -   Mostly Cloudy
11:25 AM 59.0 °F - 46.4 °F 63% 29.98 in 6.2 mi North 10.4 mph - N/A   Partly Cloudy
11:55 AM 59.0 °F - 46.4 °F 63% 29.98 in 6.2 mi NNW 9.2 mph - N/A   Unknown
12:25 PM 59.0 °F - 46.4 °F 63% 30.01 in 6.2 mi NNW 9.2 mph - N/A   Unknown
12:55 PM 59.0 °F - 44.6 °F 59% 29.98 in 6.2 mi NNW 8.1 mph - N/A   Unknown
1:25 PM 60.8 °F - 48.2 °F 63% 30.01 in 6.2 mi NW 9.2 mph - N/A   Unknown
1:55 PM 60.8 °F - 46.4 °F 59% 29.98 in 6.2 mi NW 10.4 mph - N/A   Unknown
2:00 PM 61 °F - 47 °F 50% 30.01 in 16 mi NW 8.9 mph - -   Scattered Clouds
2:25 PM 60.8 °F - 48.2 °F 63% 30.01 in 6.2 mi NW 10.4 mph - N/A   Unknown
2:55 PM 60.8 °F - 48.2 °F 63% 30.01 in 6.2 mi NW 11.5 mph - N/A   Unknown
3:25 PM 60.8 °F - 48.2 °F 63% 30.01 in 6.2 mi NW 10.4 mph - N/A   Unknown
3:55 PM 60.8 °F - 46.4 °F 59% 30.01 in 6.2 mi NW 11.5 mph - N/A   Unknown
4:25 PM 60.8 °F - 48.2 °F 63% 30.01 in 6.2 mi NNW 10.4 mph - N/A   Unknown
4:55 PM 59.0 °F - 46.4 °F 63% 30.01 in 6.2 mi North 10.4 mph - N/A   Unknown
5:00 PM 59 °F - 46 °F 52% 30.02 in 12 mi NNW 8.9 mph - -   Scattered Clouds
5:25 PM 59.0 °F - 46.4 °F 63% 30.01 in 6.2 mi North 10.4 mph - N/A   Unknown
5:55 PM 59.0 °F - 44.6 °F 59% 30.01 in 6.2 mi NNW 10.4 mph - N/A   Unknown
6:25 PM 59.0 °F - 46.4 °F 63% 30.01 in 6.2 mi North 9.2 mph - N/A   Unknown
6:55 PM 57.2 °F - 44.6 °F 63% 30.01 in 6.2 mi NNW 10.4 mph - N/A   Unknown
7:25 PM 55.4 °F - 44.6 °F 67% 30.01 in 6.2 mi NNW 10.4 mph - N/A   Unknown
7:55 PM 55.4 °F - 44.6 °F 67% 30.01 in 6.2 mi NNW 10.4 mph - N/A   Unknown
8:00 PM 55 °F - 44 °F 56% 30.01 in 14 mi NNW 11.2 mph - -  
8:25 PM 53.6 °F - 44.6 °F 72% 30.01 in 6.2 mi NNW 9.2 mph - N/A   Unknown
8:55 PM 53.6 °F - 44.6 °F 72% 30.01 in 6.2 mi NNW 9.2 mph - N/A   Unknown
9:25 PM 51.8 °F - 44.6 °F 76% 30.01 in 6.2 mi NW 8.1 mph - N/A   Unknown
9:55 PM 50.0 °F - 44.6 °F 82% 30.01 in 6.2 mi NNW 6.9 mph - N/A   Unknown
10:25 PM 50.0 °F - 44.6 °F 82% 30.01 in 6.2 mi NW 4.6 mph - N/A   Unknown
10:55 PM 48.2 °F - 44.6 °F 87% 30.01 in 6.2 mi NW 4.6 mph - N/A   Unknown
11:00 PM 47 °F - 44 °F 83% 30.03 in 12 mi NW 4.5 mph - -  
11:25 PM 46.4 °F 45.2 °F 42.8 °F 87% 30.01 in 6.2 mi NW 3.5 mph - N/A   Unknown
11:55 PM 44.6 °F 42.2 °F 42.8 °F 93% 30.04 in 6.2 mi WNW 4.6 mph - N/A   Unknown